Probability
0 0 0 0 0 0 0 0 0 0 0 0 0 0 0 0 0 0 0 0 0 0 0 0 0 0 0 0 0 0 0 0 0 0 0 0 0 0 0 0 0 0 0
0 0 0 0 0 0 0 0 0 0 0 0 0 0 0 0 0 0 0 0 0 0 0 0 0 0 0 0 0 0 0 0 0 0 0 0 0 0 0 0 0 0 0
0 0 0 0 0 0 0 0 0 0 0 0 0 0 0 0 0 0 0 0 0 0 0 0 0 0 0 0 0 0 0 0 0 0 0 0 0 0 0 0 0 0 0
0 0 0 0 0 0 0 0 0 0 0 0 0 0 0 0 0 0 0 0 0 0 0 0 0 0 0 0 0 0 0 0 0 0 0 0 0 0 0 0 0 0 0
0 0 0 0 0 0 0 0 0 0 0 0 0 0 0 0 0 0 0 0 0 0 0 0 0 0 0 0 0 0 0 0 0 0 0 0 0 0 0 0 0 0 0
0 0 0 0 0 0 0 0 0 0 0 0 0 0 0 0 0 0 0 0 0 0 0 0 0 0 0 0 0 0 0 0 0 0 0 0 0 0 0 0 0 0 0
0 0 0 0 0 0 0 0 0 0 0 0 0 0 0 0 0 0 0 0 0 0 0 0 0 0 0 0 0 0 0 0 0 0 0 0 0 0 0 0 0 0 0
0 0 0 0 0 0 0 0 0 0 0 0 0 0 0 0 0 0 0 0 0 0 0 0 0 0 0 0 0 0 0 0 0 0 0 0 0 0 0 0 0 0 0
0 0 0 0 0 0 0 0 0 0 0 0 0 0 0 0 0 0 0 0 0 0 0 0 0 0 0 0 0 0 0 0 0 0 0 0 0 0 0 0 0 0 0
0 0 0 0 0 0 0 0 0 0 0 0 0 0 0 0 0 0 0 0 0 0 0 0 0 0 0 0 0 0 0 0 0 0 0 0 0 0 0 0 0 0 0
0 0 0 0 0 0 0 0 0 0 0 0 0 0 0 0 0 0 0 0 0 0 0 0 0 0 0 0 0 0 0 0 0 0 0 0 0 0 0 0 0 0 0
0 0 0 0 0 0 0 0 0 0 0 0 0 0 0 0 0 0 0 0 0 0 0 0 0 0 0 0 0 0 0 0 0 0 0 0 0 0 0 0 0 0 0
0 0 0 0 0 0 0 0 0 0 0 0 0 0 0 0 0 0 0 0 0 0 0 0 0 0 0 0 0 0 0 0 0 0 0 0 0 0 0 0 0 0 0
0 0 0 0 0 0 0 0 0 0 0 0 0 0 0 0 0 0 0 0 0 0 0 0 0 0 0 0 0 0 0 0 0 0 0 0 0 0 0 0 0 0 0
0 0 0 0 0 0 0 0 0 0 0 0 0 0 0 0 0 0 0 0 0 0 0 0 0 0 0 0 0 0 0 0 0 0 0 0 0 0 0 0 0 0 0
0 0 0 0 0 0 0 0 0 0 0 0 0 0 0 0 0 0 0 0 0 0 0 0 0 0 0 0 0 0 0 0 0 0 0 0 0 0 0 0 0 0 0
0 0 0 0 0 0 0 0 0 0 0 0 0 0 0 0 0 0 0 0 0 0 0 0 0 0 0 0 0 0 0 0 0 0 0 0 0 0 0 0 0 0 0
0 0 0 0 0 0 0 0 0 0 0 0 0 0 0 0 0 0 0 0 0 0 0 0 0 0 0 0 0 0 0 0 0 0 0 0 0 0 0 0 0 0 0
0 0 0 0 0 0 0 0 0 0 0 0 0 0 0 0 0 0 0 0 0 0 0 0 0 0 0 0 0 0 0 0 0 0 0 0 0 0 0 0 0 0 0
0 0 0 0 0 0 0 0 0 0 0 0 0 0 0 0 0 0 0 0 0 0 0 0 0 0 0 0 0 0 0 0 0 0 0 0 0 0 0 0 0 0 0
0 0 0 0 0 0 0 0 0 0 0 0 0 0 0 0 0 0 0 0 0 0 0 0 0 0 0 0 0 0 0 0 0 0 0 0 0 0 0 0 0 0 0
0 0 0 0 0 0 0 0 0 0 0 0 0 0 0 0 0 0 0 0 0 0 0 0 0 0 0 0 0 0 0 0 0 0 0 0 0 0 0 0 0 0 0
0 0 0 0 0 0 0 0 0 0 0 0 0 0 0 0 0 0 0 0 0 0 0 0 0 0 0 0 0 0 0 0 0 0 0 0 0 0 0 0 0 0 0
0 0 0 0 0 0 0 0 0 0 0 0 0 0 0 0 0 0 0 0 0 0 0 0 0 0 0 0 0 0 0 0 0 0 0 0 0 0 0 0 0 0 0
0 0 0 0 0 0 0 0 0 0 0 0 0 0 0 0 0 0 0 0 0 0 0 0 0 0 0 0 0 0 0 0 0 0 0 0 0 0 0 0 0 0 0
0 0 0 0 0 0 0 0 0 0 0 0 0 0 0 0 0 0 0 0 0 0 0 0 0 0 0 0 0 0 0 0 0 0 0 0 0 0 0 0 0 0 0
Wind_Speed
6 6 6 6 5 5 5 5 4 4 3 2 1 1 1 0 1 2 3 4 4 4 3 4 4 3 3 2 2 2 3 3 3 3 2 2 1 2 2 2 4 4 5
6 5 5 5 5 6 5 5 5 4 4 3 2 2 1 1 1 0 2 3 4 4 4 4 4 3 3 2 2 3 2 3 3 3 2 1 2 2 2 2 2 4 4
6 6 6 6 6 6 5 5 5 4 4 4 3 4 4 3 3 2 2 2 3 3 3 3 4 4 3 2 2 2 2 2 2 2 1 1 1 1 0 1 1 1 3
7 7 7 7 6 5 5 5 5 5 5 5 5 5 5 5 4 4 2 1 1 1 2 3 4 5 5 4 3 2 2 2 1 1 0 1 1 1 0 1 2 1 2
7 7 7 6 6 6 7 6 6 7 7 6 6 6 5 4 5 4 4 3 2 0 1 2 3 5 7 5 4 3 3 2 1 1 1 1 1 1 1 1 1 2 2
7 7 7 7 7 7 7 7 7 7 7 7 7 6 7 6 8 7 4 2 1 1 2 2 2 3 5 5 6 6 5 3 2 2 1 0 1 1 1 1 1 1 2
6 7 7 7 7 7 7 7 7 6 6 6 6 5 5 7 11 10 7 2 2 1 2 2 2 2 3 2 3 3 3 3 4 3 2 1 1 1 0 1 1 0 1
6 6 6 6 7 6 7 7 6 4 4 4 5 5 5 9 14 12 9 4 3 2 2 3 3 3 2 3 3 2 1 0 1 2 2 2 1 1 1 1 0 1 1
5 5 5 6 6 7 7 6 5 4 5 4 4 6 6 8 14 13 9 3 3 4 3 3 3 3 3 5 5 4 3 2 2 3 3 2 2 2 2 2 2 2 2
3 3 4 5 6 6 6 5 5 5 5 5 6 6 6 6 13 14 10 3 4 3 4 4 5 4 3 6 5 5 5 2 2 3 3 3 3 4 4 2 2 2 1
3 4 4 4 5 5 5 5 5 6 6 6 6 6 6 8 11 15 12 4 3 3 3 2 2 4 5 5 5 4 4 4 3 3 3 3 3 3 3 3 2 2 2
4 5 5 5 5 5 6 6 6 6 6 6 6 6 5 6 9 11 13 9 5 3 2 2 2 5 7 7 4 5 7 7 4 4 3 3 2 2 2 3 4 3 3
4 4 4 5 5 5 6 6 5 5 5 5 5 5 5 6 7 13 13 12 9 4 3 5 7 8 8 6 8 8 6 4 4 4 3 2 2 2 2 3 4 5 6
5 4 3 4 4 5 5 5 5 5 5 5 5 5 5 5 6 6 6 6 7 6 5 7 9 10 8 8 7 6 5 4 4 4 3 2 3 3 4 3 3 3 4
4 4 3 3 4 4 4 4 4 4 3 3 3 3 4 5 7 9 6 5 4 4 4 5 6 6 6 6 6 6 5 5 5 4 4 4 4 4 4 3 3 4 4
4 3 3 3 2 2 3 3 5 4 6 7 6 4 3 6 9 11 13 13 12 10 8 6 6 6 6 5 5 5 5 5 4 4 4 4 4 4 4 4 4 4 4
4 3 3 3 3 3 2 2 1 3 5 6 8 9 9 10 11 11 11 13 14 12 8 7 6 6 5 5 5 5 4 4 4 4 4 4 4 4 4 4 3 3 3
3 3 3 3 3 3 3 2 2 1 1 2 5 7 9 10 11 11 9 8 8 8 6 6 5 5 4 4 4 4 4 4 4 4 4 4 4 3 4 3 3 3 3
3 2 2 2 2 2 2 2 2 2 1 1 2 4 6 7 10 11 9 6 5 5 4 4 4 4 4 4 4 4 4 4 4 4 4 4 3 3 3 3 3 4 3
2 4 4 2 2 2 2 3 3 3 2 1 1 1 2 3 4 4 4 4 4 3 3 3 3 4 4 3 3 3 4 4 4 3 3 3 3 3 3 3 3 3 2
2 2 3 2 2 3 3 3 4 3 3 2 1 1 2 2 2 2 2 2 2 2 2 2 2 3 3 3 3 3 4 3 3 3 3 3 3 3 3 3 3 2 2
2 2 2 2 2 3 3 3 4 4 4 4 2 1 3 2 2 2 1 1 1 1 1 2 2 2 2 2 2 2 3 3 3 2 2 2 3 3 3 2 2 2 2
1 2 2 2 3 4 3 3 4 4 4 4 4 3 2 2 2 2 2 2 2 1 1 1 2 1 1 2 2 2 2 1 1 1 2 3 3 2 2 2 2 2 2
1 2 3 3 3 3 4 4 4 5 5 5 4 4 4 3 3 3 3 2 2 2 2 1 1 2 3 2 1 1 1 0 0 0 2 3 3 2 2 2 2 2 2
2 2 3 3 4 4 4 4 4 5 5 5 5 4 4 4 4 4 3 3 3 3 3 2 2 3 4 4 3 1 1 1 1 2 2 3 3 3 3 2 2 2 2
3 3 3 3 4 4 4 4 5 5 5 5 5 5 5 5 5 4 4 4 4 3 3 3 4 5 5 3 3 3 2 2 3 4 3 3 3 3 3 2 3 2 2
Wind_Direction
13 17 24 25 30 45 52 59 64 66 69 75 72 75 89 166 203 195 208 194 182 191 193 187 196 185 176 180 169 171 178 172 210 260 263 264 243 234 195 200 214 219 224
10 21 25 25 31 37 37 43 52 52 46 38 34 38 21 2 358 224 240 218 202 195 196 187 197 183 179 179 170 182 185 185 191 236 274 275 254 241 215 222 222 219 220
18 25 27 28 33 32 26 30 38 44 39 35 35 36 37 34 16 329 271 252 233 213 194 184 185 166 175 171 171 174 178 172 175 196 264 289 282 291 291 281 264 259 247
25 27 28 25 27 29 32 35 36 41 47 47 44 43 46 43 28 5 356 323 302 270 209 186 176 171 172 165 158 157 144 128 134 151 261 313 306 316 45 278 292 276 270
30 30 25 24 28 34 38 43 46 49 55 56 58 50 43 44 31 22 16 24 15 44 104 150 180 181 171 163 153 153 135 120 107 95 58 14 349 347 297 268 266 292 291
33 31 29 33 36 37 39 47 54 53 54 57 59 56 47 36 26 27 29 38 28 91 109 124 158 171 170 157 150 152 148 141 140 131 122 107 306 299 306 308 300 355 323
34 31 30 35 38 35 42 46 48 49 52 56 52 49 42 25 27 25 30 49 56 95 134 130 133 134 129 130 147 149 154 154 152 151 154 193 211 263 271 20 13 17 322
33 30 31 36 36 32 37 40 39 42 47 49 44 38 31 24 27 26 29 40 56 62 95 133 138 132 144 160 151 142 139 28 180 153 160 181 180 172 147 149 134 60 13
34 33 32 39 41 38 37 32 28 37 40 41 38 34 29 14 23 29 38 32 51 52 56 81 111 122 145 152 141 133 109 61 77 133 146 140 119 103 99 72 50 60 35
44 50 46 45 48 43 38 34 32 41 41 46 43 34 28 16 19 27 35 40 55 53 44 46 62 80 107 137 140 139 139 141 111 92 74 59 51 44 53 69 94 86 74
67 69 57 53 56 49 41 34 35 39 41 40 39 27 21 15 13 22 29 39 48 60 57 36 25 59 88 111 122 135 151 141 120 109 91 66 47 38 32 32 52 101 102
84 76 59 48 52 51 48 39 34 36 40 32 27 18 9 5 8 12 25 35 49 70 58 27 31 70 79 82 89 109 117 113 105 98 86 70 55 38 25 31 43 55 67
102 91 74 63 52 47 50 45 37 33 37 30 27 20 3 1 2 12 21 31 43 58 53 65 75 74 70 66 73 86 91 95 100 99 95 77 54 41 37 39 38 52 52
121 119 104 85 66 50 45 44 46 35 32 30 27 16 2 359 4 3 6 18 30 45 51 59 65 65 62 58 58 59 62 77 94 95 89 67 52 48 41 41 46 42 48
125 130 125 106 96 74 59 44 42 31 24 27 12 3 5 5 358 13 31 30 34 48 59 57 54 52 54 52 52 51 51 56 62 61 71 69 60 56 42 36 51 56 61
129 140 148 142 126 113 100 61 28 25 21 26 27 23 3 15 26 41 48 50 51 60 67 62 58 55 57 55 56 53 50 51 54 64 66 68 69 67 57 45 52 65 67
144 152 152 160 163 163 158 137 64 355 3 13 17 26 35 38 43 46 51 54 49 57 66 62 59 57 55 54 55 58 53 44 51 60 64 63 67 67 65 57 55 60 59
142 148 145 155 168 177 184 183 172 147 4 347 355 15 33 42 45 46 48 58 50 48 57 60 57 53 53 56 55 55 51 45 47 52 56 58 64 73 71 63 59 67 64
151 156 150 150 157 159 158 152 148 137 104 32 6 6 24 42 46 44 47 60 66 58 52 52 49 49 50 53 54 54 54 51 48 50 50 55 64 77 78 72 71 67 66
187 187 167 158 156 157 152 144 141 139 131 108 62 5 9 45 43 33 39 54 65 64 59 56 48 49 49 51 54 56 55 50 45 49 50 56 64 78 89 86 80 73 57
209 215 191 163 174 177 169 164 162 160 161 167 202 234 130 105 98 82 71 69 80 86 81 72 61 53 50 54 64 68 66 53 44 47 55 61 75 82 85 85 80 68 59
203 223 217 201 199 191 181 174 167 170 176 181 203 213 127 116 129 126 120 117 119 124 124 108 84 64 62 68 83 89 77 57 36 35 59 77 88 94 94 87 79 64 61
232 233 226 218 202 193 182 176 176 179 185 190 189 190 176 167 170 171 172 168 161 150 136 120 110 93 75 71 74 101 114 91 10 30 94 100 101 100 98 92 87 79 66
262 240 227 219 207 199 197 198 193 190 188 188 189 189 188 188 188 188 184 178 174 171 166 159 160 156 145 121 92 86 106 234 274 90 117 125 119 111 103 92 81 80 82
274 256 236 219 211 209 208 206 201 196 191 190 192 191 189 187 189 189 184 183 181 188 191 179 164 160 161 154 151 153 130 84 106 139 121 123 125 125 119 110 98 84 88
273 264 251 230 216 209 206 206 206 202 199 197 195 192 189 189 190 188 183 183 187 194 194 190 189 180 171 166 166 158 126 88 112 132 129 120 125 129 127 117 117 102 99